Weather History for KSMS - September, 2012

Change the Weather History Date:

Monday, September 3, 2012

  Actual Average Record
Temperature  
Mean Temperature 82 °F -  
Max Temperature 91 °F 88 °F 107 °F (2015)
Min Temperature 73 °F 66 °F 62 °F (2010)
Cooling Degree Days 17    
Growing Degree Days 32 (Base 50)    
Moisture  
Dew Point 75 °F    
Average Humidity 91    
Maximum Humidity 100    
Minimum Humidity 55    
Precipitation  
Precipitation 0.35 in - - ()
Sea Level Pressure  
Sea Level Pressure 30.01 in    
Wind  
Wind Speed 3 mph (SSW)    
Max Wind Speed 13 mph    
Max Gust Speed 18 mph    
Visibility 8 miles    
Events Rain , Thunderstorm    
Averages and records for this station are not official NWS values.
T = Trace of Precipitation, MM = Missing Value Source: NWS Daily Summary

Daily Weather History Graph

Daily Weather History Graph

Search for Another Location

Airport or City:

Trip Planner

Search our weather history database for the weather conditions in past years. The results will help you decide how hot, cold, wet, or windy it might be!

Date:

Astronomy

Sep. 03, 2012 Rise Set
Actual Time 6:56 AM EDT 7:43 PM EDT
Civil Twilight 6:31 AM EDT 8:09 PM EDT
Nautical Twilight 6:01 AM EDT 8:39 PM EDT
Astronomical Twilight 5:30 AM EDT 9:09 PM EDT
Moon 9:15 PM EDT (9/3) 9:51 AM EDT (9/3)
Length of Visible Light 13h 37m
Length of Day
12h 47m
Waning Gibbous, 90% of the Moon is Illuminated
Sep 3
Waning Gibbous
Sep 8
Last Quarter
Sep 15
New
Sep 22
First Quarter
Sep 29
Full

Hourly Weather History & Observations

Time (EDT) Temp. Heat Index Dew Point Humidity Pressure Visibility Wind Dir Wind Speed Gust Speed Precip Events Conditions
12:15 AM 75.2 °F - 75.2 °F 100% 30.02 in 3.0 mi Calm Calm - N/A   Clear
1:15 AM 75.2 °F - 75.2 °F 100% 30.01 in 4.0 mi Calm Calm - N/A   Clear
1:35 AM 75.2 °F - 75.2 °F 100% 30.01 in 3.0 mi Calm Calm - N/A   Partly Cloudy
1:55 AM 75.2 °F - 75.2 °F 100% 30.00 in 10.0 mi Calm Calm - N/A   Partly Cloudy
2:15 AM 77.0 °F - 77.0 °F 100% 30.00 in 10.0 mi SSW 4.6 mph - N/A   Scattered Clouds
2:35 AM 77.0 °F - 77.0 °F 100% 30.00 in 10.0 mi SW 5.8 mph - N/A   Scattered Clouds
2:55 AM 77.0 °F - 75.2 °F 94% 30.00 in 10.0 mi SW 4.6 mph - N/A   Mostly Cloudy
3:15 AM 77.0 °F - 77.0 °F 100% 30.00 in 10.0 mi SW 5.8 mph - N/A   Mostly Cloudy
3:35 AM 77.0 °F - 77.0 °F 100% 30.00 in 10.0 mi SSW 5.8 mph - N/A   Partly Cloudy
3:55 AM 77.0 °F - 77.0 °F 100% 29.99 in 10.0 mi SSW 3.5 mph - N/A   Scattered Clouds
4:15 AM 77.0 °F - 77.0 °F 100% 29.99 in 10.0 mi SW 5.8 mph - N/A   Partly Cloudy
4:35 AM 77.0 °F - 77.0 °F 100% 29.99 in 10.0 mi SW 5.8 mph - N/A   Partly Cloudy
4:55 AM 75.2 °F - 75.2 °F 100% 29.99 in 10.0 mi SW 5.8 mph - N/A   Partly Cloudy
5:15 AM 75.2 °F - 75.2 °F 100% 29.99 in 10.0 mi SW 4.6 mph - N/A   Clear
5:35 AM 75.2 °F - 75.2 °F 100% 30.00 in 10.0 mi SW 4.6 mph - N/A   Clear
5:55 AM 75.2 °F - 75.2 °F 100% 30.00 in 9.0 mi Calm Calm - N/A   Clear
6:15 AM 75.2 °F - 75.2 °F 100% 30.00 in 9.0 mi Calm Calm - N/A   Clear
6:35 AM 73.4 °F - 73.4 °F 100% 30.01 in 7.0 mi Calm Calm - N/A   Clear
6:55 AM 73.4 °F - 73.4 °F 100% 30.01 in 7.0 mi Calm Calm - N/A   Clear
7:15 AM 73.4 °F - 73.4 °F 100% 30.02 in 7.0 mi Calm Calm - N/A   Clear
7:35 AM 75.2 °F - 75.2 °F 100% 30.02 in 7.0 mi SSW 4.6 mph - N/A   Clear
7:55 AM 75.2 °F - 75.2 °F 100% 30.03 in 10.0 mi Calm Calm - N/A   Clear
8:15 AM 77.0 °F - 77.0 °F 100% 30.03 in 10.0 mi SW 6.9 mph - N/A   Clear
8:35 AM 78.8 °F - 75.2 °F 89% 30.04 in 10.0 mi WSW 5.8 mph - N/A   Clear
8:55 AM 80.6 °F 86.2 °F 75.2 °F 84% 30.03 in 10.0 mi SW 6.9 mph - N/A   Clear
9:15 AM 80.6 °F 86.2 °F 75.2 °F 84% 30.04 in 10.0 mi WSW 5.8 mph - N/A   Clear
9:35 AM 82.4 °F 88.2 °F 73.4 °F 74% 30.03 in 10.0 mi SW 5.8 mph - N/A   Clear
9:55 AM 84.2 °F 90.9 °F 73.4 °F 70% 30.04 in 10.0 mi WSW 6.9 mph - N/A   Clear
10:15 AM 84.2 °F 90.9 °F 73.4 °F 70% 30.05 in 10.0 mi SW 8.1 mph - N/A   Clear
10:35 AM 86.0 °F 95.1 °F 75.2 °F 70% 30.05 in 10.0 mi WSW 5.8 mph - N/A   Clear
10:55 AM 86.0 °F 95.1 °F 75.2 °F 70% 30.05 in 10.0 mi SSW 6.9 mph - N/A   Clear
11:15 AM 86.0 °F 95.1 °F 75.2 °F 70% 30.04 in 10.0 mi SW 5.8 mph - N/A   Clear
11:35 AM 87.8 °F 97.6 °F 75.2 °F 66% 30.04 in 10.0 mi South 8.1 mph - N/A   Clear
11:55 AM 87.8 °F 97.6 °F 75.2 °F 66% 30.04 in 10.0 mi SSW 6.9 mph - N/A   Partly Cloudy
12:15 PM 89.6 °F 99.8 °F 75.2 °F 62% 30.03 in 10.0 mi SSW 6.9 mph - N/A   Scattered Clouds
12:35 PM 87.8 °F 97.6 °F 75.2 °F 66% 30.03 in 10.0 mi SSW 5.8 mph - N/A   Mostly Cloudy
12:55 PM 89.6 °F 99.8 °F 75.2 °F 62% 30.02 in 10.0 mi SSW 9.2 mph - N/A   Scattered Clouds
1:15 PM 89.6 °F 99.8 °F 75.2 °F 62% 30.00 in 10.0 mi SSE 6.9 mph - N/A   Scattered Clouds
1:35 PM 89.6 °F 99.8 °F 75.2 °F 62% 29.99 in 10.0 mi South 10.4 mph - N/A   Scattered Clouds
1:55 PM 89.6 °F 99.8 °F 75.2 °F 62% 29.99 in 10.0 mi South 6.9 mph - N/A Thunderstorm Scattered Clouds
2:15 PM 89.6 °F 98.2 °F 73.4 °F 59% 29.97 in 10.0 mi South 11.5 mph 18.4 mph N/A Thunderstorm Mostly Cloudy
2:35 PM 91.4 °F 100.1 °F 73.4 °F 55% 29.97 in 10.0 mi South 12.7 mph 18.4 mph N/A   Scattered Clouds
2:55 PM 82.4 °F 87.2 °F 71.6 °F 70% 30.00 in 10.0 mi WSW 11.5 mph - N/A Thunderstorm Thunderstorm
3:15 PM 77.0 °F - 73.4 °F 89% 30.00 in 10.0 mi WSW 9.2 mph - N/A Thunderstorm Mostly Cloudy
3:35 PM 75.2 °F - 75.2 °F 100% 30.01 in 3.0 mi West 5.8 mph - 0.09 in Thunderstorm Mostly Cloudy
3:55 PM 75.2 °F - 75.2 °F 100% 30.01 in 3.0 mi WSW 11.5 mph - 0.16 in Thunderstorm Overcast
4:15 PM 75.2 °F - 75.2 °F 100% 30.01 in 3.0 mi South 6.9 mph - 0.08 in Rain , Thunderstorm Rain
4:35 PM 75.2 °F - 75.2 °F 100% 30.00 in 5.0 mi Calm Calm - 0.10 in Rain Light Rain
4:55 PM 73.4 °F - 73.4 °F 100% 30.00 in 3.0 mi SSW 4.6 mph - 0.14 in Rain Rain
5:15 PM 73.4 °F - 73.4 °F 100% 30.00 in 5.0 mi Calm Calm - 0.02 in Rain Light Rain
5:35 PM 75.2 °F - 75.2 °F 100% 29.99 in 6.0 mi Calm Calm - 0.04 in Rain Light Rain
5:55 PM 75.2 °F - 75.2 °F 100% 29.98 in 10.0 mi South 4.6 mph - 0.05 in Rain Light Rain
6:15 PM 75.2 °F - 75.2 °F 100% 29.99 in 10.0 mi SSW 3.5 mph - N/A Rain Light Rain
6:35 PM 75.2 °F - 75.2 °F 100% 30.00 in 7.0 mi Calm Calm - N/A Rain Light Rain
6:55 PM 75.2 °F - 75.2 °F 100% 30.00 in 10.0 mi Calm Calm - N/A Rain Light Rain
7:15 PM 75.2 °F - 75.2 °F 100% 30.00 in 10.0 mi Calm Calm - N/A Rain Light Rain
7:35 PM 75.2 °F - 75.2 °F 100% 30.00 in 10.0 mi Calm Calm - N/A Rain Light Rain
7:55 PM 75.2 °F - 75.2 °F 100% 30.00 in 9.0 mi Calm Calm - N/A Rain Light Rain
8:15 PM 75.2 °F - 75.2 °F 100% 30.00 in 7.0 mi Calm Calm - N/A Rain Light Rain
8:35 PM 75.2 °F - 75.2 °F 100% 30.01 in 8.0 mi Calm Calm - N/A Rain Light Rain
8:55 PM 73.4 °F - 73.4 °F 100% 30.01 in 9.0 mi Calm Calm - N/A Rain Light Rain
9:15 PM 73.4 °F - 73.4 °F 100% 30.02 in 9.0 mi Calm Calm - N/A Rain Light Rain
9:35 PM 73.4 °F - 73.4 °F 100% 30.02 in 5.0 mi Calm Calm - N/A   Clear
9:55 PM 73.4 °F - 73.4 °F 100% 30.02 in 5.0 mi Calm Calm - N/A   Clear
10:15 PM 73.4 °F - 73.4 °F 100% 30.02 in 3.0 mi Calm Calm - N/A   Clear
10:35 PM 73.4 °F - 73.4 °F 100% 30.03 in 2.5 mi Calm Calm - N/A   Clear
10:55 PM 73.4 °F - 73.4 °F 100% 30.03 in 5.0 mi SE 3.5 mph - N/A   Clear
11:15 PM 73.4 °F - 73.4 °F 100% 30.03 in 5.0 mi Calm Calm - N/A   Clear
11:35 PM 73.4 °F - 73.4 °F 100% 30.03 in 4.0 mi Calm Calm - N/A   Partly Cloudy
11:55 PM 73.4 °F - 73.4 °F 100% 30.03 in 5.0 mi Calm Calm - N/A   Partly Cloudy